DateTimeUTC,F1_A11,F1_S11,BsB_S11,BsG_S11,BsR_S11,BbsB_S11,BbsG_S11,BbsR_S11,BaB_A11,BaG_A11,BaR_A11,Tu_S11,T_S11,Uu_S11,U_S11,P_S11,T1_A11
2021-05-20T01:00:00Z,00000200,21000000,,,,,,,-000.33,0000.25,-000.01,16.6,24.0,,00.0,0674.8,30.9
2021-05-20T01:01:00Z,00000200,21000000,,,,,,,0000.11,-000.18,0000.10,16.6,24.0,,00.0,0674.8,30.9
2021-05-20T01:02:00Z,00000200,21000000,,,,,,,-000.33,-000.26,-000.48,16.5,24.0,,00.0,0674.8,30.9
2021-05-20T01:03:00Z,00000200,61000000,,,,,,,0000.96,0001.00,0000.64,16.5,24.0,,00.0,0674.8,30.9
2021-05-20T01:04:00Z,00000200,41000000,0004.66,0002.36,0001.63,0000.56,0000.46,0000.44,0001.01,0000.89,0000.89,16.7,23.7,00.2,00.1,0675.6,30.8
2021-05-20T01:05:00Z,00000200,01000000,0004.46,0002.71,0001.57,0001.29,0000.41,0000.17,0001.33,0001.32,0000.64,16.7,23.6,00.2,00.1,0675.7,30.8
2021-05-20T01:06:00Z,00000200,01000000,0004.50,0002.67,0001.50,0000.48,0000.65,0000.56,0001.18,0000.62,0001.10,16.7,23.6,00.3,00.2,0675.7,30.8
2021-05-20T01:07:00Z,00000200,01000000,0004.46,0002.50,0001.56,0001.10,0000.63,0000.04,0000.93,0000.94,-000.14,16.7,23.6,00.2,00.1,0675.7,30.8
2021-05-20T01:08:00Z,00000200,01000000,0004.70,0003.03,0001.72,0001.03,0000.42,0000.23,0001.07,0000.93,0001.16,16.7,23.6,00.2,00.2,0675.7,30.8
2021-05-20T01:09:00Z,00000200,01000000,0004.02,0002.72,0001.68,0000.82,0000.80,0000.52,0000.86,0000.70,0000.28,16.7,23.6,00.3,00.2,0675.7,30.8
2021-05-20T01:10:00Z,00000200,01000000,0004.40,0002.95,0001.64,0001.19,0000.60,0000.19,0001.03,0001.11,0000.99,16.7,23.6,00.2,00.1,0675.7,30.8
2021-05-20T01:11:00Z,00000200,01000000,0005.00,0002.67,0001.31,0000.66,0000.58,0000.41,0000.68,0000.85,0000.36,16.6,23.5,00.2,00.1,0675.7,30.8
2021-05-20T01:12:00Z,00000200,01000000,0004.16,0002.76,0001.82,0000.84,0000.52,0000.58,0001.11,0000.84,0000.48,16.6,23.5,00.1,00.1,0675.7,30.8
2021-05-20T01:13:00Z,00000200,01000000,0004.41,0002.62,0001.65,0000.30,0000.54,0000.11,0001.26,0000.93,0000.88,16.6,23.5,00.1,00.1,0675.7,30.8
2021-05-20T01:14:00Z,00000200,01000000,0004.76,0002.31,0001.64,0001.23,0000.36,0000.84,0001.48,0001.09,0001.23,16.6,23.5,00.2,00.1,0675.7,30.8
2021-05-20T01:15:00Z,00000200,01000000,0004.67,0002.71,0001.42,0000.92,0000.70,0000.46,0001.10,0000.74,0000.48,16.7,23.5,00.1,00.1,0675.7,30.9
2021-05-20T01:16:00Z,00000200,01000000,0004.57,0002.80,0001.57,0000.60,0000.53,0000.17,0000.62,0001.03,0000.64,16.7,23.5,00.1,00.1,0675.7,30.9
2021-05-20T01:17:00Z,00000200,01000000,0005.32,0002.73,0001.66,0000.89,0000.62,0000.13,0001.02,0000.79,0000.56,16.8,23.6,00.1,00.1,0675.7,30.9
2021-05-20T01:18:00Z,00000200,01000000,0004.53,0002.91,0001.64,0000.89,0000.44,0000.50,0001.40,0001.61,0001.29,16.8,23.6,00.2,00.1,0675.6,30.9
2021-05-20T01:19:00Z,00000200,01000000,0004.97,0002.23,0001.58,0000.69,0000.46,0000.45,0001.02,0000.81,0000.57,16.9,23.7,00.2,00.1,0675.6,30.9
2021-05-20T01:20:00Z,00000200,01000000,0005.00,0002.63,0001.63,0000.56,0000.34,0000.38,0001.41,0001.02,0000.97,17.0,23.7,00.2,00.2,0675.6,30.9
2021-05-20T01:21:00Z,00000200,01000000,0004.28,0002.78,0001.64,0000.50,0000.37,0000.42,0000.76,0000.83,0000.46,17.0,23.8,00.2,00.2,0675.6,30.9
2021-05-20T01:22:00Z,00000200,01000000,0005.14,0003.03,0001.61,0000.52,0000.38,0000.55,0000.56,0000.75,0000.69,17.1,23.8,00.2,00.1,0675.6,31.0
2021-05-20T01:23:00Z,00000200,01000000,0004.85,0002.67,0001.26,0000.88,0000.72,0000.41,0001.23,0001.02,0000.63,17.2,23.8,00.2,00.1,0675.6,31.0
2021-05-20T01:24:00Z,00000200,01000000,0004.64,0002.75,0001.44,0000.72,0000.60,0000.54,0001.14,0001.28,0000.42,17.3,23.9,00.2,00.1,0675.7,31.0
2021-05-20T01:25:00Z,00000200,01000000,0003.92,0002.61,0001.85,0000.52,0000.48,0000.48,0001.16,0000.68,0001.15,17.3,23.9,00.1,00.1,0675.7,31.0
2021-05-20T01:26:00Z,00000200,01000000,0004.60,0002.64,0001.56,0000.31,0000.42,0000.51,0000.92,0000.50,0000.39,17.4,24.0,00.1,00.0,0675.7,31.0
2021-05-20T01:27:00Z,00000200,01000000,0004.73,0002.72,0001.41,0001.29,0000.55,0000.46,0000.98,0001.02,0000.48,17.5,24.0,00.1,00.1,0675.7,31.0
2021-05-20T01:28:00Z,00000200,01000000,0004.67,0002.74,0001.62,0001.23,0000.56,0000.48,0001.22,0000.92,0000.95,17.6,24.1,00.1,00.0,0675.7,31.0
2021-05-20T01:29:00Z,00000200,01000000,0004.10,0002.83,0001.39,0000.58,0000.62,0000.24,0000.73,0001.14,0000.53,17.7,24.1,00.1,00.1,0675.8,31.0
2021-05-20T01:30:00Z,00000200,01000000,0004.48,0002.62,0001.45,0000.94,0000.54,0000.36,0001.20,0000.81,0000.86,17.7,24.2,00.1,00.1,0675.7,31.0
2021-05-20T01:31:00Z,00000200,01000000,0004.05,0002.51,0001.57,0000.96,0000.55,0000.09,0000.76,0000.53,0000.29,17.7,24.2,00.1,00.1,0675.7,31.0
2021-05-20T01:32:00Z,00000200,01000000,0004.31,0002.78,0001.63,0000.84,0000.73,0000.32,0000.88,0001.03,0000.80,17.7,24.3,00.1,00.1,0675.7,31.0
2021-05-20T01:33:00Z,00000200,01000000,0004.89,0002.86,0001.76,0000.42,0000.61,0000.38,0001.01,0000.95,0000.60,17.7,24.2,00.1,00.0,0675.7,31.0
2021-05-20T01:34:00Z,00000200,01000000,0004.34,0002.53,0001.48,0001.30,0000.52,0000.34,0000.58,0000.50,0000.07,17.7,24.2,00.0,00.0,0675.7,31.0
2021-05-20T01:35:00Z,00000200,01000000,0004.54,0002.56,0001.38,0001.00,0000.41,0000.33,0001.03,0000.89,0001.12,17.6,24.2,00.0,00.0,0675.7,31.0
2021-05-20T01:36:00Z,00000200,01000000,0005.03,0002.91,0001.46,0000.75,0000.56,0000.53,0001.23,0000.97,0000.41,17.6,24.2,00.0,00.0,0675.8,31.0
2021-05-20T01:37:00Z,00000200,01000000,0004.53,0002.89,0001.60,0001.41,0000.32,0000.35,0000.90,0000.66,0000.33,17.5,24.1,00.0,00.0,0675.8,31.0
2021-05-20T01:38:00Z,00000200,01000000,0004.30,0002.63,0001.85,0000.58,0000.53,0000.50,0000.99,0000.84,0000.87,17.5,24.1,00.0,00.0,0675.7,31.0
2021-05-20T01:39:00Z,00000200,01000000,0004.66,0002.71,0001.68,0000.95,0000.56,0000.55,0001.28,0001.11,0000.99,17.4,24.1,00.0,00.0,0675.7,31.0
2021-05-20T01:40:00Z,00000200,01000000,0004.84,0002.77,0001.55,0000.80,0000.16,0000.55,0000.69,0000.76,0000.15,17.4,24.1,00.0,00.0,0675.7,30.9
2021-05-20T01:41:00Z,00000200,01000000,0004.31,0003.05,0001.81,0001.13,0000.56,0000.53,0001.03,0000.92,0000.73,17.4,24.1,00.0,00.0,0675.7,30.9
2021-05-20T01:42:00Z,00000200,01000000,0003.86,0002.82,0001.53,0000.66,0000.52,0000.56,0001.11,0001.02,0000.61,17.3,24.1,00.0,00.0,0675.7,30.9
2021-05-20T01:43:00Z,00000200,01000000,0004.86,0002.44,0001.79,0000.18,0000.37,0000.20,0000.88,0000.58,0000.37,17.3,24.0,00.0,00.0,0675.6,30.9
2021-05-20T01:44:00Z,00000200,01000000,0004.28,0002.70,0001.27,0000.67,0000.48,0000.29,0001.27,0001.22,0000.92,17.3,24.0,00.0,00.0,0675.6,30.9
2021-05-20T01:45:00Z,00000200,01000000,0004.64,0002.78,0001.44,0000.35,0000.45,0000.40,0001.10,0000.57,0000.77,17.3,24.0,00.0,00.0,0675.6,30.9
2021-05-20T01:46:00Z,00000200,01000000,0004.98,0002.94,0001.33,0000.59,0000.62,0000.29,0000.98,0001.29,0000.40,17.2,24.0,00.0,00.0,0675.6,30.9
2021-05-20T01:47:00Z,00000200,01000000,0005.08,0002.52,0001.55,0000.94,0000.50,0000.55,0000.74,0000.85,0000.93,17.2,24.0,00.0,00.0,0675.6,30.9
2021-05-20T01:48:00Z,00000200,01000000,0004.83,0002.72,0001.80,0000.87,0000.36,0000.46,0000.97,0000.92,0000.73,17.2,23.9,00.0,00.0,0675.6,30.9
2021-05-20T01:49:00Z,00000200,01000000,0004.32,0002.53,0001.43,0001.11,0000.62,0000.32,0001.28,0000.92,0000.51,17.1,23.9,00.0,00.0,0675.5,30.9
2021-05-20T01:50:00Z,00000200,01000000,0004.36,0002.76,0001.43,0000.74,0000.54,0000.42,0001.00,0000.61,0000.66,17.1,23.9,00.0,00.0,0675.5,30.9
2021-05-20T01:51:00Z,00000200,01000000,0004.50,0002.82,0001.16,0001.26,0000.71,0000.36,0000.94,0001.37,0000.78,17.1,23.9,00.0,00.0,0675.5,30.9
2021-05-20T01:52:00Z,00000200,01000000,0004.89,0002.69,0001.40,0000.67,0000.79,-000.08,0000.84,0000.59,0000.69,17.1,23.9,00.0,00.0,0675.4,30.9
2021-05-20T01:53:00Z,00000200,01000000,0004.35,0002.59,0001.67,0001.29,0000.70,0000.38,0001.27,0000.77,0000.46,17.0,23.8,00.1,00.1,0675.4,30.9
2021-05-20T01:54:00Z,00000200,01000000,0004.58,0002.77,0001.44,0000.77,0000.54,0000.51,0000.70,0000.94,0000.74,17.0,23.8,00.0,00.0,0675.5,30.9
2021-05-20T01:55:00Z,00000200,01000000,0004.97,0002.63,0001.41,0000.41,0000.67,0000.33,0000.89,0000.65,0000.46,17.0,23.8,00.0,00.0,0675.5,30.9
2021-05-20T01:56:00Z,00000200,01000000,0004.68,0002.69,0001.55,0000.76,0000.62,0000.67,0000.09,-000.10,-000.44,16.9,23.8,00.0,00.0,0675.6,30.9
2021-05-20T01:57:00Z,00000200,41000000,,,,,,,0001.42,0001.58,0001.32,17.0,23.8,,00.0,0675.6,30.8
2021-05-20T01:58:00Z,00000200,61000000,,,,,,,-000.09,-000.23,-000.09,16.6,23.9,,00.0,0674.5,30.9
2021-05-20T01:59:00Z,00000200,21000000,,,,,,,-000.38,-000.08,0000.07,16.6,24.0,,00.0,0674.4,30.9
